BAW722 EGLL-LOWW

Flight info

Callsign BAW722
Flight time 1h 46m
Altitude 37000
Route BPK Q295 MATCH DCT REDFA DCT TACHA DCT GISEB DCT BADGO DCT SWALM DCT GASKA DCT ENITA DCT ETVIS DCT BUDEX BUDEX2W
Aircraft A320/M-SDE3FGHIRWY/LB1

Departure

Time 2026-04-26 07:51
Airport London Heathrow Airport (EGLL)

Arrival

Time 2026-04-26 09:37
Airport Vienna International Airport (LOWW)
Time Latitude Longitude Altitude Speed Heading
2026-04-26 07:12 51.46847 -0.45576 90 ft 0 kts 360°
2026-04-26 07:41 51.46844 -0.45576 60 ft 3 kts
2026-04-26 07:42 51.46817 -0.45578 87 ft 4 kts
2026-04-26 07:42 51.46792 -0.45587 88 ft 4 kts 20°
2026-04-26 07:42 51.46768 -0.45606 90 ft 4 kts 39°
2026-04-26 07:42 51.46751 -0.45637 91 ft 4 kts 76°
2026-04-26 07:43 51.46749 -0.45651 89 ft 0 kts 90°
2026-04-26 07:45 51.46749 -0.45646 91 ft 0 kts 90°
2026-04-26 07:45 51.46749 -0.45645 91 ft 0 kts 89°
2026-04-26 07:46 51.46749 -0.45641 87 ft 1 kts 90°
2026-04-26 07:46 51.46744 -0.45606 90 ft 6 kts 112°
2026-04-26 07:47 51.46685 -0.45582 89 ft 13 kts 204°
2026-04-26 07:47 51.46660 -0.45754 87 ft 20 kts 270°
2026-04-26 07:47 51.46660 -0.46020 89 ft 27 kts 269°
2026-04-26 07:47 51.46659 -0.46347 89 ft 30 kts 270°
2026-04-26 07:48 51.46657 -0.46668 90 ft 29 kts 269°
2026-04-26 07:48 51.46656 -0.46998 87 ft 30 kts 270°
2026-04-26 07:48 51.46656 -0.47347 87 ft 32 kts 269°
2026-04-26 07:48 51.46654 -0.47709 86 ft 31 kts 269°
2026-04-26 07:49 51.46653 -0.47946 87 ft 18 kts 269°
2026-04-26 07:49 51.46653 -0.48140 87 ft 16 kts 269°
2026-04-26 07:49 51.46605 -0.48221 88 ft 11 kts 185°
2026-04-26 07:50 51.46480 -0.48179 90 ft 8 kts 99°
2026-04-26 07:50 51.46478 -0.48135 87 ft 0 kts 89°
2026-04-26 07:50 51.46478 -0.48128 87 ft 4 kts 89°
2026-04-26 07:50 51.46479 -0.47760 86 ft 68 kts 90°
2026-04-26 07:51 51.46484 -0.46677 89 ft 123 kts 90°
2026-04-26 07:51 51.46490 -0.45067 203 ft 155 kts 90°
2026-04-26 07:51 51.46499 -0.43375 908 ft 151 kts 89°
2026-04-26 07:51 51.46593 -0.41692 1464 ft 158 kts 75°
2026-04-26 07:52 51.47202 -0.40088 1697 ft 182 kts 52°
2026-04-26 07:52 51.48074 -0.38439 1908 ft 205 kts 52°
2026-04-26 07:52 51.49021 -0.36634 2217 ft 225 kts 52°
2026-04-26 07:52 51.50083 -0.34600 2594 ft 248 kts 51°
2026-04-26 07:53 51.51212 -0.32440 3369 ft 255 kts 51°
2026-04-26 07:53 51.52244 -0.30124 4247 ft 257 kts 67°
2026-04-26 07:53 51.52866 -0.27417 5103 ft 260 kts 72°
2026-04-26 07:53 51.53454 -0.24644 5913 ft 265 kts 72°
2026-04-26 07:54 51.54055 -0.21807 6687 ft 271 kts 69°
2026-04-26 07:54 51.55101 -0.19284 7368 ft 277 kts 38°
2026-04-26 07:54 51.56842 -0.17975 8095 ft 281 kts 13°
2026-04-26 07:54 51.58762 -0.17310 8872 ft 284 kts 12°
2026-04-26 07:55 51.60709 -0.16675 9647 ft 287 kts 11°
2026-04-26 07:55 51.62678 -0.16019 10391 ft 291 kts 12°
2026-04-26 07:55 51.64702 -0.15274 10734 ft 309 kts 13°
2026-04-26 07:55 51.66869 -0.14390 10879 ft 332 kts 14°
2026-04-26 07:56 51.69167 -0.13369 11028 ft 353 kts 18°
2026-04-26 07:56 51.71410 -0.11641 11478 ft 363 kts 33°
2026-04-26 07:56 51.73227 -0.09185 12020 ft 368 kts 47°
2026-04-26 07:56 51.74736 -0.05828 12595 ft 373 kts 62°
2026-04-26 07:57 51.75661 -0.01959 13182 ft 378 kts 77°
2026-04-26 07:57 51.76068 0.02246 13787 ft 381 kts 83°
2026-04-26 07:57 51.76418 0.06508 14375 ft 385 kts 83°
2026-04-26 07:57 51.76768 0.10822 14922 ft 389 kts 82°
2026-04-26 07:58 51.77120 0.15180 15465 ft 392 kts 82°
2026-04-26 07:58 51.77476 0.19553 15997 ft 395 kts 82°
2026-04-26 07:58 51.77841 0.23975 16532 ft 398 kts 81°
2026-04-26 07:58 51.78455 0.28360 17076 ft 402 kts 75°
2026-04-26 07:59 51.79163 0.32749 17630 ft 405 kts 75°
2026-04-26 07:59 51.79872 0.37168 18181 ft 409 kts 75°
2026-04-26 07:59 51.80345 0.40124 18548 ft 412 kts 75°
2026-04-26 07:59 51.81303 0.46157 19218 ft 417 kts 75°
2026-04-26 08:00 51.82023 0.50708 19720 ft 420 kts 75°
2026-04-26 08:00 51.82504 0.53753 20044 ft 423 kts 75°
2026-04-26 08:00 51.83234 0.58370 20544 ft 426 kts 75°
2026-04-26 08:00 51.83967 0.63033 21008 ft 429 kts 75°
2026-04-26 08:01 51.84702 0.67731 21464 ft 432 kts 75°
2026-04-26 08:01 51.85441 0.72459 21898 ft 435 kts 75°
2026-04-26 08:01 51.86183 0.77228 22323 ft 439 kts 75°
2026-04-26 08:01 51.86926 0.82032 22737 ft 441 kts 75°
2026-04-26 08:02 51.87675 0.86868 23153 ft 444 kts 75°
2026-04-26 08:02 51.88429 0.91734 23558 ft 447 kts 75°
2026-04-26 08:02 51.89188 0.96641 23930 ft 450 kts 75°
2026-04-26 08:02 51.89940 1.01519 24255 ft 453 kts 75°
2026-04-26 08:03 51.90700 1.06476 24583 ft 455 kts 75°
2026-04-26 08:03 51.91455 1.11451 24906 ft 457 kts 75°
2026-04-26 08:03 51.92209 1.16461 25232 ft 458 kts 75°
2026-04-26 08:03 51.92966 1.21487 25548 ft 460 kts 75°
2026-04-26 08:04 51.93728 1.26534 25877 ft 462 kts 75°
2026-04-26 08:04 51.94497 1.31608 26192 ft 464 kts 75°
2026-04-26 08:04 51.95268 1.36698 26514 ft 466 kts 75°
2026-04-26 08:04 51.96038 1.41821 26828 ft 468 kts 75°
2026-04-26 08:05 51.96804 1.46961 27142 ft 470 kts 75°
2026-04-26 08:05 51.97568 1.52113 27580 ft 469 kts 75°
2026-04-26 08:05 51.98327 1.57244 28032 ft 468 kts 75°
2026-04-26 08:05 51.99082 1.62373 28478 ft 467 kts 75°
2026-04-26 08:06 51.99835 1.67496 28916 ft 466 kts 75°
2026-04-26 08:06 52.00584 1.72601 29379 ft 465 kts 75°
2026-04-26 08:06 52.01331 1.77697 29847 ft 464 kts 75°
2026-04-26 08:06 52.02076 1.82792 30292 ft 463 kts 75°
2026-04-26 08:07 52.02816 1.87864 30699 ft 462 kts 75°
2026-04-26 08:07 52.03550 1.92936 31104 ft 461 kts 75°
2026-04-26 08:07 52.04280 1.97996 31493 ft 460 kts 75°
2026-04-26 08:07 52.05004 2.03049 31895 ft 459 kts 75°
2026-04-26 08:08 52.05724 2.08099 32297 ft 458 kts 75°
2026-04-26 08:08 52.06440 2.13129 32700 ft 457 kts 75°
2026-04-26 08:08 52.07156 2.18158 33095 ft 456 kts 75°
2026-04-26 08:08 52.07869 2.23179 33488 ft 456 kts 75°
2026-04-26 08:09 52.08572 2.28137 33884 ft 455 kts 75°
2026-04-26 08:09 52.09277 2.33135 34282 ft 454 kts 75°
2026-04-26 08:09 52.09990 2.38210 34610 ft 453 kts 75°
2026-04-26 08:09 52.10681 2.43139 34912 ft 453 kts 75°
2026-04-26 08:10 52.11379 2.48133 35215 ft 452 kts 75°
2026-04-26 08:10 52.12152 2.53080 35507 ft 451 kts 72°
2026-04-26 08:10 52.13038 2.57967 35786 ft 450 kts 70°
2026-04-26 08:10 52.13998 2.62810 36058 ft 449 kts 70°
2026-04-26 08:11 52.14921 2.67668 36324 ft 450 kts 77°
2026-04-26 08:11 52.15204 2.72742 36564 ft 451 kts 93°
2026-04-26 08:11 52.14671 2.77766 36793 ft 452 kts 105°
2026-04-26 08:11 52.13861 2.82715 37001 ft 452 kts 105°
2026-04-26 08:12 52.13037 2.87648 37235 ft 452 kts 105°
2026-04-26 08:12 52.12204 2.92585 37352 ft 454 kts 105°
2026-04-26 08:12 52.10516 3.02584 37365 ft 462 kts 105°
2026-04-26 08:13 52.08811 3.12704 37368 ft 465 kts 105°
2026-04-26 08:13 52.07101 3.22836 37369 ft 465 kts 105°
2026-04-26 08:14 52.05380 3.32957 37365 ft 465 kts 105°
2026-04-26 08:14 52.03646 3.43066 37370 ft 465 kts 105°
2026-04-26 08:15 52.01904 3.53175 37372 ft 465 kts 106°
2026-04-26 08:15 52.00162 3.63282 37374 ft 465 kts 106°
2026-04-26 08:16 51.98422 3.73309 37379 ft 464 kts 106°
2026-04-26 08:16 51.96652 3.83389 37376 ft 464 kts 106°
2026-04-26 08:17 51.94875 3.93457 37376 ft 464 kts 106°
2026-04-26 08:17 51.93094 4.03510 37373 ft 464 kts 106°
2026-04-26 08:18 51.91310 4.13555 37375 ft 464 kts 106°
2026-04-26 08:18 51.89517 4.23587 37375 ft 463 kts 107°
2026-04-26 08:19 51.87717 4.33601 37374 ft 463 kts 107°
2026-04-26 08:19 51.85906 4.43599 37375 ft 463 kts 107°
2026-04-26 08:20 51.84086 4.53593 37374 ft 463 kts 107°
2026-04-26 08:20 51.82269 4.63496 37375 ft 463 kts 107°
2026-04-26 08:21 51.80438 4.73471 37374 ft 462 kts 107°
2026-04-26 08:21 51.78599 4.83430 37372 ft 462 kts 107°
2026-04-26 08:22 51.76751 4.93365 37370 ft 462 kts 107°
2026-04-26 08:22 51.74892 5.03290 37372 ft 462 kts 107°
2026-04-26 08:23 51.73027 5.13198 37372 ft 462 kts 107°
2026-04-26 08:23 51.71170 5.23042 37373 ft 462 kts 107°
2026-04-26 08:24 51.69298 5.32941 37377 ft 461 kts 107°
2026-04-26 08:24 51.67413 5.42823 37377 ft 461 kts 107°
2026-04-26 08:25 51.65509 5.52689 37374 ft 461 kts 108°
2026-04-26 08:25 51.63606 5.62537 37372 ft 461 kts 108°
2026-04-26 08:26 51.61693 5.72395 37377 ft 461 kts 108°
2026-04-26 08:26 51.59775 5.82226 37376 ft 461 kts 108°
2026-04-26 08:27 51.57852 5.92052 37377 ft 461 kts 108°
2026-04-26 08:27 51.55924 6.01866 37377 ft 460 kts 108°
2026-04-26 08:28 51.53998 6.11608 37376 ft 460 kts 108°
2026-04-26 08:28 51.52051 6.21399 37376 ft 459 kts 108°
2026-04-26 08:29 51.50098 6.31158 37373 ft 459 kts 108°
2026-04-26 08:29 51.48140 6.40905 37372 ft 459 kts 108°
2026-04-26 08:30 51.46193 6.50583 37369 ft 459 kts 108°
2026-04-26 08:30 51.44218 6.60307 37369 ft 458 kts 108°
2026-04-26 08:31 51.42233 6.70011 37371 ft 458 kts 109°
2026-04-26 08:31 51.40244 6.79714 37371 ft 458 kts 109°
2026-04-26 08:32 51.38254 6.89402 37372 ft 458 kts 109°
2026-04-26 08:32 51.36252 6.99081 37369 ft 458 kts 109°
2026-04-26 08:33 51.34236 7.08759 37366 ft 458 kts 109°
2026-04-26 08:33 51.32211 7.18418 37366 ft 458 kts 109°
2026-04-26 08:34 51.30184 7.28059 37361 ft 458 kts 109°
2026-04-26 08:34 51.28151 7.37707 37361 ft 458 kts 109°
2026-04-26 08:35 51.26129 7.47264 37362 ft 457 kts 109°
2026-04-26 08:35 51.24078 7.56890 37357 ft 457 kts 109°
2026-04-26 08:36 51.22027 7.66485 37353 ft 457 kts 109°
2026-04-26 08:36 51.19971 7.76059 37349 ft 456 kts 109°
2026-04-26 08:37 51.17909 7.85619 37343 ft 456 kts 110°
2026-04-26 08:37 51.15831 7.95166 37341 ft 455 kts 110°
2026-04-26 08:38 51.13769 8.04634 37339 ft 455 kts 110°
2026-04-26 08:38 51.11683 8.14150 37337 ft 455 kts 110°
2026-04-26 08:39 51.09470 8.23592 37334 ft 454 kts 117°
2026-04-26 08:39 51.06270 8.32224 37339 ft 453 kts 122°
2026-04-26 08:40 51.02978 8.40780 37337 ft 453 kts 122°
2026-04-26 08:40 50.99765 8.49126 37339 ft 453 kts 123°
2026-04-26 08:41 50.96457 8.57660 37342 ft 454 kts 123°
2026-04-26 08:41 50.93144 8.66170 37346 ft 453 kts 123°
2026-04-26 08:42 50.89823 8.74673 37345 ft 454 kts 123°
2026-04-26 08:42 50.86499 8.83163 37342 ft 453 kts 123°
2026-04-26 08:43 50.83193 8.91579 37341 ft 453 kts 123°
2026-04-26 08:43 50.79852 9.00045 37343 ft 453 kts 123°
2026-04-26 08:44 50.76516 9.08494 37337 ft 453 kts 123°
2026-04-26 08:44 50.73167 9.16934 37332 ft 453 kts 123°
2026-04-26 08:45 50.69909 9.25460 37328 ft 454 kts 120°
2026-04-26 08:45 50.66981 9.34293 37324 ft 455 kts 118°
2026-04-26 08:46 50.64133 9.43197 37319 ft 455 kts 118°
2026-04-26 08:46 50.61221 9.51996 37316 ft 455 kts 119°
2026-04-26 08:47 50.58227 9.60803 37316 ft 455 kts 120°
2026-04-26 08:47 50.55227 9.69588 37318 ft 456 kts 119°
2026-04-26 08:48 50.52738 9.76888 37317 ft 456 kts 119°
2026-04-26 08:48 50.49234 9.87152 37313 ft 456 kts 119°
2026-04-26 08:49 50.46224 9.95944 37314 ft 456 kts 120°
2026-04-26 08:49 50.43226 10.04659 37313 ft 456 kts 120°
2026-04-26 08:50 50.40203 10.13417 37313 ft 457 kts 120°
2026-04-26 08:50 50.37170 10.22174 37314 ft 457 kts 120°
2026-04-26 08:51 50.33271 10.33940 37315 ft 458 kts 115°
2026-04-26 08:52 50.30731 10.43096 37315 ft 459 kts 114°
2026-04-26 08:52 50.28248 10.52289 37315 ft 459 kts 114°
2026-04-26 08:53 50.25676 10.61445 37324 ft 459 kts 115°
2026-04-26 08:53 50.23045 10.70546 37317 ft 459 kts 115°
2026-04-26 08:54 50.20403 10.79638 37318 ft 460 kts 115°
2026-04-26 08:54 50.17782 10.88683 37317 ft 460 kts 115°
2026-04-26 08:55 50.15143 10.97795 37315 ft 461 kts 115°
2026-04-26 08:55 50.12490 11.06894 37317 ft 461 kts 115°
2026-04-26 08:56 50.09822 11.15980 37311 ft 461 kts 115°
2026-04-26 08:56 50.07149 11.25076 37314 ft 462 kts 115°
2026-04-26 08:57 50.04477 11.34153 37306 ft 462 kts 115°
2026-04-26 08:57 50.01785 11.43237 37304 ft 462 kts 115°
2026-04-26 08:58 49.99087 11.52301 37301 ft 462 kts 115°
2026-04-26 08:58 49.96397 11.61317 37299 ft 462 kts 115°
2026-04-26 08:59 49.93689 11.70373 37292 ft 463 kts 116°
2026-04-26 08:59 49.90970 11.79420 37284 ft 462 kts 116°
2026-04-26 09:00 49.88244 11.88455 37279 ft 462 kts 116°
2026-04-26 09:00 49.85506 11.97477 37281 ft 463 kts 116°
2026-04-26 09:01 49.82757 12.06499 37266 ft 463 kts 116°
2026-04-26 09:01 49.80003 12.15509 37271 ft 463 kts 116°
2026-04-26 09:02 49.77269 12.24476 37278 ft 464 kts 116°
2026-04-26 09:02 49.74502 12.33500 37281 ft 464 kts 116°
2026-04-26 09:03 49.71717 12.42496 37281 ft 464 kts 116°
2026-04-26 09:03 49.69572 12.51893 37275 ft 464 kts 101°
2026-04-26 09:04 49.68233 12.61656 37279 ft 465 kts 102°
2026-04-26 09:04 49.66861 12.71342 37274 ft 465 kts 102°
2026-04-26 09:05 49.65134 12.80964 37282 ft 465 kts 114°
2026-04-26 09:05 49.61871 12.89530 37289 ft 464 kts 126°
2026-04-26 09:06 49.58167 12.97680 37293 ft 464 kts 126°
2026-04-26 09:06 49.54457 13.05830 37294 ft 465 kts 126°
2026-04-26 09:07 49.50740 13.13982 37297 ft 465 kts 126°
2026-04-26 09:07 49.47014 13.22132 37297 ft 466 kts 126°
2026-04-26 09:08 49.43282 13.30264 37292 ft 466 kts 126°
2026-04-26 09:08 49.39532 13.38392 37291 ft 466 kts 126°
2026-04-26 09:09 49.35778 13.46518 37287 ft 467 kts 126°
2026-04-26 09:09 49.32046 13.54586 37286 ft 467 kts 126°
2026-04-26 09:10 49.28278 13.62699 37289 ft 467 kts 126°
2026-04-26 09:10 49.24501 13.70809 37286 ft 467 kts 126°
2026-04-26 09:11 49.20720 13.78898 37289 ft 468 kts 126°
2026-04-26 09:11 49.16926 13.86971 37287 ft 467 kts 126°
2026-04-26 09:12 49.13122 13.95033 37288 ft 468 kts 126°
2026-04-26 09:12 49.09316 14.03091 37290 ft 468 kts 126°
2026-04-26 09:13 49.05514 14.11143 37295 ft 468 kts 126°
2026-04-26 09:13 49.01701 14.19192 37295 ft 468 kts 126°
2026-04-26 09:14 48.97904 14.27177 37297 ft 468 kts 126°
2026-04-26 09:14 48.94068 14.35195 37036 ft 468 kts 127°
2026-04-26 09:14 48.92118 14.39159 36769 ft 468 kts 128°
2026-04-26 09:15 48.90136 14.43094 36122 ft 470 kts 128°
2026-04-26 09:15 48.88124 14.47029 35368 ft 473 kts 129°
2026-04-26 09:15 48.86094 14.50981 34600 ft 476 kts 129°
2026-04-26 09:15 48.84053 14.54960 33704 ft 480 kts 129°
2026-04-26 09:16 48.82003 14.58973 32793 ft 482 kts 128°
2026-04-26 09:16 48.79945 14.63018 31873 ft 485 kts 128°
2026-04-26 09:16 48.77883 14.67079 30970 ft 487 kts 128°
2026-04-26 09:16 48.75804 14.71177 29823 ft 492 kts 128°
2026-04-26 09:17 48.73712 14.75294 28770 ft 493 kts 127°
2026-04-26 09:17 48.71612 14.79410 27663 ft 495 kts 127°
2026-04-26 09:17 48.69492 14.83550 26607 ft 497 kts 127°
2026-04-26 09:17 48.67392 14.87636 26018 ft 488 kts 127°
2026-04-26 09:18 48.65308 14.91679 25249 ft 485 kts 127°
2026-04-26 09:18 48.63262 14.95635 24534 ft 482 kts 127°
2026-04-26 09:18 48.61271 14.99754 23989 ft 473 kts 119°
2026-04-26 09:18 48.59920 15.04215 23327 ft 464 kts 104°
2026-04-26 09:19 48.59007 15.08812 22844 ft 463 kts 103°
2026-04-26 09:19 48.58091 15.13465 22358 ft 461 kts 103°
2026-04-26 09:19 48.57165 15.18160 21888 ft 459 kts 103°
2026-04-26 09:19 48.56269 15.22699 21433 ft 456 kts 103°
2026-04-26 09:20 48.55363 15.27272 20979 ft 454 kts 103°
2026-04-26 09:20 48.54455 15.31823 20599 ft 452 kts 103°
2026-04-26 09:20 48.53549 15.36354 20228 ft 449 kts 103°
2026-04-26 09:20 48.52647 15.40853 19865 ft 447 kts 103°
2026-04-26 09:21 48.51745 15.45340 19507 ft 446 kts 103°
2026-04-26 09:21 48.50846 15.49814 19152 ft 444 kts 103°
2026-04-26 09:21 48.49950 15.54259 18800 ft 443 kts 103°
2026-04-26 09:21 48.49056 15.58688 18438 ft 441 kts 103°
2026-04-26 09:22 48.48163 15.63097 18033 ft 439 kts 103°
2026-04-26 09:22 48.47273 15.67487 17640 ft 437 kts 103°
2026-04-26 09:22 48.46399 15.71804 17254 ft 435 kts 103°
2026-04-26 09:22 48.45518 15.76155 16865 ft 433 kts 103°
2026-04-26 09:23 48.44639 15.80484 16485 ft 431 kts 103°
2026-04-26 09:23 48.43759 15.84787 16107 ft 429 kts 103°
2026-04-26 09:23 48.42879 15.89069 15735 ft 427 kts 103°
2026-04-26 09:23 48.41995 15.93345 15360 ft 426 kts 103°
2026-04-26 09:24 48.41115 15.97597 14998 ft 424 kts 104°
2026-04-26 09:24 48.40241 16.01823 14643 ft 422 kts 104°
2026-04-26 09:24 48.39370 16.06033 14293 ft 420 kts 104°
2026-04-26 09:24 48.38514 16.10170 13924 ft 419 kts 104°
2026-04-26 09:25 48.37649 16.14345 13471 ft 416 kts 104°
2026-04-26 09:25 48.36786 16.18490 12992 ft 414 kts 104°
2026-04-26 09:25 48.35926 16.22608 12527 ft 411 kts 104°
2026-04-26 09:25 48.35072 16.26691 12070 ft 408 kts 104°
2026-04-26 09:26 48.34217 16.30752 11614 ft 406 kts 104°
2026-04-26 09:26 48.33365 16.34791 11162 ft 404 kts 104°
2026-04-26 09:26 48.32518 16.38804 10688 ft 401 kts 104°
2026-04-26 09:26 48.31679 16.42789 10196 ft 399 kts 104°
2026-04-26 09:27 48.30844 16.46737 9629 ft 390 kts 105°
2026-04-26 09:27 48.30036 16.50534 9022 ft 373 kts 105°
2026-04-26 09:27 48.29233 16.54156 8471 ft 359 kts 109°
2026-04-26 09:27 48.28179 16.57424 7967 ft 348 kts 119°
2026-04-26 09:28 48.26810 16.60353 7472 ft 338 kts 129°
2026-04-26 09:28 48.25193 16.62859 6952 ft 331 kts 139°
2026-04-26 09:28 48.23385 16.64912 6500 ft 322 kts 149°
2026-04-26 09:28 48.21453 16.66504 6027 ft 313 kts 157°
2026-04-26 09:29 48.19434 16.67630 5558 ft 306 kts 165°
2026-04-26 09:29 48.17414 16.68466 5179 ft 297 kts 165°
2026-04-26 09:29 48.15441 16.69286 4790 ft 291 kts 165°
2026-04-26 09:29 48.13485 16.70103 4421 ft 293 kts 165°
2026-04-26 09:30 48.11552 16.70913 4054 ft 283 kts 165°
2026-04-26 09:30 48.09674 16.71694 3685 ft 276 kts 165°
2026-04-26 09:30 48.07855 16.72447 3331 ft 268 kts 165°
2026-04-26 09:30 48.06060 16.73189 2959 ft 267 kts 165°
2026-04-26 09:31 48.04304 16.73918 2652 ft 263 kts 164°
2026-04-26 09:31 48.02544 16.74650 2574 ft 250 kts 165°
2026-04-26 09:31 48.00943 16.75318 2599 ft 236 kts 165°
2026-04-26 09:31 47.99381 16.75960 2610 ft 230 kts 167°
2026-04-26 09:32 47.97823 16.75960 2597 ft 222 kts 203°
2026-04-26 09:32 47.96609 16.74737 2633 ft 207 kts 240°
2026-04-26 09:32 47.95953 16.72918 2583 ft 193 kts 254°
2026-04-26 09:32 47.95446 16.71103 2585 ft 187 kts 254°
2026-04-26 09:33 47.95202 16.69283 2585 ft 173 kts 286°
2026-04-26 09:33 47.95713 16.67726 2602 ft 166 kts 311°
2026-04-26 09:33 47.96466 16.66415 2601 ft 166 kts 315°
2026-04-26 09:33 47.97238 16.65147 2602 ft 165 kts 315°
2026-04-26 09:34 47.98031 16.63923 2606 ft 163 kts 325°
2026-04-26 09:34 47.99050 16.63255 2571 ft 157 kts 344°
2026-04-26 09:34 48.00051 16.62842 2421 ft 147 kts 343°
2026-04-26 09:34 48.01023 16.62436 2278 ft 146 kts 343°
2026-04-26 09:35 48.01994 16.62029 2071 ft 144 kts 343°
2026-04-26 09:35 48.02952 16.61627 1880 ft 139 kts 342°
2026-04-26 09:35 48.03847 16.61251 1692 ft 130 kts 344°
2026-04-26 09:35 48.04711 16.60886 1503 ft 128 kts 345°
2026-04-26 09:36 48.05565 16.60526 1327 ft 127 kts 346°
2026-04-26 09:36 48.06414 16.60168 1143 ft 127 kts 345°
2026-04-26 09:36 48.07264 16.59809 980 ft 127 kts 345°
2026-04-26 09:36 48.08112 16.59445 794 ft 127 kts 346°
2026-04-26 09:37 48.08964 16.59093 636 ft 127 kts 346°
2026-04-26 09:37 48.09707 16.58779 621 ft 89 kts 345°
2026-04-26 09:37 48.10143 16.58600 617 ft 44 kts 343°
2026-04-26 09:37 48.10357 16.58478 619 ft 26 kts 320°
2026-04-26 09:38 48.10458 16.58268 621 ft 21 kts 298°
2026-04-26 09:38 48.10556 16.58141 620 ft 19 kts 341°
2026-04-26 09:38 48.10690 16.58084 613 ft 21 kts 345°
2026-04-26 09:38 48.10814 16.58031 621 ft 22 kts 344°
2026-04-26 09:39 48.10964 16.57968 624 ft 23 kts 344°
2026-04-26 09:39 48.11104 16.57870 615 ft 21 kts 293°
2026-04-26 09:39 48.11174 16.57665 615 ft 23 kts 296°
2026-04-26 09:39 48.11245 16.57443 620 ft 25 kts 292°
2026-04-26 09:40 48.11324 16.57203 617 ft 26 kts 295°
2026-04-26 09:40 48.11409 16.56945 613 ft 28 kts 295°
2026-04-26 09:40 48.11494 16.56680 615 ft 29 kts 297°
2026-04-26 09:40 48.11587 16.56402 612 ft 31 kts 296°
2026-04-26 09:41 48.11656 16.56187 623 ft 17 kts 295°
2026-04-26 09:41 48.11695 16.56064 622 ft 13 kts 296°
2026-04-26 09:41 48.11732 16.55978 618 ft 7 kts 336°
2026-04-26 09:41 48.11769 16.56015 615 ft 6 kts 37°
2026-04-26 09:42 48.11789 16.56038 613 ft 1 kts 38°
2026-04-26 09:42 48.11790 16.56039 618 ft 0 kts 38°